Regional Weather Roundup
Issued by NWS

Home | Current Version | Previous Version | Graphics & Text | Print | Product List | Glossary On
Versions: 1 2 3 4 5 6 7 8 9 10 11 12 13 14 15 16 17 18 19 20 21 22 23 24 25 26 27 28 29 30 31 32 33 34 35 36 37 38 39 40 41 42 43 44 45 46 47 48 49 50
000
ASUS43 KMKX 211700
RWRWI

WISCONSIN REGIONAL WEATHER ROUNDUP
NATIONAL WEATHER SERVICE MILWAUKEE/SULLIVAN WI
1200 PM CDT TUE OCT 21 2014

NOTE: "FAIR" INDICATES FEW OR NO CLOUDS BELOW 12,000 FEET WITH NO
SIGNIFICANT WEATHER AND/OR OBSTRUCTIONS TO VISIBILITY.

WIZ001-002-006>008-014>016-023>028-211800-
NORTHWEST WISCONSIN

CITY           SKY/WX    TMP DP  RH WIND       PRES   REMARKS
SUPERIOR ARPT  CLOUDY    45  37  71 E8        30.26S
ASHLAND        CLOUDY    44  34  67 VRB3      30.29R
HAYWARD        PTSUNNY   46  35  65 E9        30.25S
SIREN          SUNNY     49  35  58 E6        30.23S
CUMBERLAND     SUNNY     46  34  61 SE6       30.23S
RICE LAKE      MOSUNNY   47  35  63 E5        30.25S HAZE
CHETEK         PTSUNNY   47  36  67 E8        30.24S
LADYSMITH      PTSUNNY   46  36  67 E7        30.26S
EAU CLAIRE     MOSUNNY   47  36  65 E5        30.24S
MENOMONIE      MOSUNNY   47  37  67 NE7       30.25R
NEW RICHMOND   SUNNY     49  36  62 E9        30.22S
OSCEOLA        SUNNY     50  39  65 E9        30.25R
$$

WIZ003>005-009-010-017-018-211800-
NORTH CENTRAL WISCONSIN

CITY           SKY/WX    TMP DP  RH WIND       PRES   REMARKS
MANITOWISH WTR CLOUDY    38  35  87 E6        30.25S WCI  34
ARBOR VITAE    CLOUDY    39  34  81 NE3       30.25S
WOODRUFF       CLOUDY    39  34  81 NE3       30.25S
RHINELANDER    CLOUDY    40  33  76 CALM      30.26R
EAGLE RIVER    CLOUDY    40  33  75 E3        30.25S
LAND O LAKES   CLOUDY    39  34  82 E5        30.26R
PHILLIPS       CLOUDY    40  34  79 NE8       30.25R WCI  35
TOMAHAWK       CLOUDY    40  33  77 CALM      30.26R
MEDFORD        PTSUNNY   43  35  72 E3        30.24S
MERRILL        CLOUDY    42  34  74 E6        30.25S
$$

WIZ029-030-035-036-043>047-211800-
CENTRAL WISCONSIN

CITY           SKY/WX    TMP DP  RH WIND       PRES   REMARKS
WAUSAU         PTSUNNY   44  34  67 SE8       30.24S
MOSINEE        NOT AVBL
MARSHFIELD     PTSUNNY   46  35  65 VRB3      30.24R
STEVENS POINT  CLOUDY    43  34  70 E8        30.26R
WAUPACA        CLOUDY    47  36  64 N7        30.25F
WAUTOMA        NOT AVBL
WISC RAPIDS    CLOUDY    46  35  65 E6        30.27R
CAMP DOUGLAS   NOT AVBL
$$

WIZ011>013-019>022-031-037>040-048>050-211800-
NORTHEAST WISCONSIN

CITY           SKY/WX    TMP DP  RH WIND       PRES   REMARKS
ANTIGO         CLOUDY    42  35  75 NE7       30.24S
SHAWANO        PTSUNNY   49  37  62 N9        30.25S
OCONTO         PTSUNNY   47  34  58 N10       30.25R
STURGEON BAY   PTSUNNY   48  34  57 N16       30.24R
GREEN BAY      PTSUNNY   48  35  60 NE13      30.25R
MANITOWOC      CLOUDY    48  36  61 N12G18    30.23R HAZE
APPLETON       PTSUNNY   46  36  66 NE9       30.24S
CLINTONVILLE   CLOUDY    45  34  65 NE9       30.25S
OSHKOSH        CLOUDY    46  37  71 N12       30.24R
$$

WIZ032>034-041-042-053>061-211800-
SOUTHWEST WISCONSIN

CITY           SKY/WX    TMP DP  RH WIND       PRES   REMARKS
LA CROSSE      SUNNY     52  38  58 SE6       30.24S
SPARTA         PTSUNNY   49  36  61 E6        30.26R
VIROQUA        SUNNY     49  37  61 E5        30.22F
BOSCOBEL       SUNNY     53  37  54 VRB6      30.24S
PRAIRIE DU CHI SUNNY     51  36  56 NE5       30.23S
PLATTEVILLE    MOSUNNY   51  40  66 NE8       30.23R
$$

WIZ056-057-062-063-064-067-068-211800-
SOUTH CENTRAL WISCONSIN

CITY           SKY/WX    TMP DP  RH WIND       PRES   REMARKS
REEDSBURG      CLOUDY    46  36  68 NE5       30.24R
BARABOO/DELLS  CLOUDY    46  35  67 E6        30.24S
LONE ROCK      NOT AVBL
MINERAL POINT  MOSUNNY   50  36  57 NE6       30.22S
MADISON        CLOUDY    47  37  68 NE12      30.24R
MIDDLETON      CLOUDY    47  37  65 NE8       30.24R
WATERTOWN      CLOUDY    46  38  73 N7        30.23R
MONROE         PTSUNNY   46  37  71 N13       30.21S
JANESVILLE     PTSUNNY   52  37  58 N16       30.21R
$$

WIZ051-052-058>065-066-070>072-211800-
SOUTHEAST WISCONSIN

CITY           SKY/WX    TMP DP  RH WIND       PRES   REMARKS
MILWAUKEE      CLOUDY    48  38  68 N13       30.21R
WAUKESHA       CLOUDY    45  37  76 N9        30.22R
MILWAUKEE/TIMM CLOUDY    46  37  71 N17       30.22R
RACINE         CLOUDY    48  40  73 N17G23    30.21R
BURLINGTON     CLOUDY    49  37  65 N12       30.20R
KENOSHA        CLOUDY    49  40  71 N12       30.20R
FOND DU LAC    CLOUDY    46  37  71 N10       30.24S
SHEBOYGAN      CLOUDY    48  36  63 N8G18     30.22R
WEST BEND      CLOUDY    45  36  70 N6        30.22R
JUNEAU         CLOUDY    45  37  74 NE10      30.24R
$$

LSZ147-162-211800-
LAKE SUPERIOR

STATION/POSITION TIME  TEMP    WIND        PRES    WAVE
                       AIR SEA DIR/SP/G            HT/PER
                 (UTC) (F)     (DEG/KT/KT) (MB)    (FT/S)
W MID LAKE BUOY  1550   41 46   70/ 10/ 14 1026.2R   3/ 6
DEVILS ISLAND    1600   42      90/ 13/ 15 1026.3R
PORT WING        1600   44      70/  5/ 10 1025.4
SAXON HARBOR     1600   44      70/  3/  9 1025.1S
$$

LMZ867-665-643>646-211800-
LAKE MICHIGAN

STATION/POSITION TIME  TEMP    WIND        PRES    WAVE
                       AIR SEA DIR/SP/G            HT/PER
                 (UTC) (F)     (DEG/KT/KT) (MB)    (FT/S)
CHAMBERS ISLAND  1600   47      10/ 15/ 19 1024.0R
N MID LAKE BUOY  1550   44 51   30/ 16/ 19 1023.5R   3/ 5
NORTHPORT PIER   1600   45     360/ 15/ 18 1023.7R
KEWAUNEE LAKESHO 1600   47      20/ 11/ 15 1022.4R
SHEBOYGAN LAKESH 1600   46 49  360/ 22/ 23 1023.5R
PORT WASHINGTON  1640   48     350/ 10/ 15 1023.7R
ATWATER BUOY     1600   48     350/ 17/ 21 1023.2R
MILWAUKEE LAKESH 1600   47     350/  9/ 14   N/A
S MID LAKE BUOY  1550   50 54  360/ 19/ 23 1020.8R   7/ 7
KENOSHA   LAKESH 1600   48     350/ 18/ 22 1022.0R
$$

TC  - TEMPERATURE IN CELSIUS
VSB - VISIBILITY IN STATUTE MILES
WCI - WIND CHILL INDEX
HX  - HEAT INDEX




USA.gov is the U.S. government's official web portal to all federal, state and local government web resources and services.